PARUS

Last updated on Mon Nov 13 2023 00:02:05 GMT+0000 (Coordinated Universal Time)

1 58173U 98067VZ 23316.10043729 .08361054 31139+0 13202-1 0 9997 2 58173 51.6170 313.6367 0011230 121.7804 238.4306 16.11601195 2723

Satellite not in orbit